Regional Weather Roundup
Issued by NWS

Home | Current Version | Previous Version | Text Only | Print | Product List | Glossary On
Versions: 1 2 3 4 5 6 7 8 9 10 11 12 13 14 15 16 17 18 19 20 21 22 23 24 25 26 27 28 29 30 31 32 33 34 35 36 37 38 39 40 41 42 43 44 45 46 47 48 49 50
000
ASUS43 KTOP 230459
RWRKS

WEATHER ROUNDUP FOR KANSAS
NATIONAL WEATHER SERVICE GOODLAND KS
1200 AM CDT MON APR 23 2018

NOTE:  "FAIR" INDICATES FEW OR NO CLOUDS BELOW 12,000 FEET WITH NO
SIGNIFICANT WEATHER AND/OR OBSTRUCTIONS TO VISIBILITY.

KSZ001>006-013>018-027>032-041>047-230600-
NORTHWEST KANSAS

CITY           SKY/WX    TMP DP  RH WIND       PRES   REMARKS
GOODLAND       CLEAR     39  35  86 S9        30.18S
HAYS           CLOUDY    50  43  77 CALM      30.17S
HILL CITY      CLEAR     41  37  86 NW3       30.18S
RUSSELL        CLOUDY    49  44  83 NW7       30.14F
$$

KSZ061>065-074>080-084>089-230600-
SOUTHWEST KANSAS

CITY           SKY/WX    TMP DP  RH WIND       PRES   REMARKS
DODGE CITY     PTCLDY    47  39  74 E6        30.17S
GARDEN CITY    CLEAR     43  37  79 E6        30.17S
GREAT BEND     CLOUDY    49  44  83 NW6       30.16S
LIBERAL        CLEAR     40  37  89 NW6       30.18S
$$

KSZ066>073-081>083-090>101-230600-
SOUTHEAST KANSAS

CITY           SKY/WX    TMP DP  RH WIND       PRES   REMARKS
CHANUTE        CLOUDY    55  47  74 NE10      30.06S
COFFEYVILLE    CLOUDY    55  50  83 NE17G29   30.04S
HUTCHINSON     CLOUDY    57  42  57 N7        30.12S
MEDICINE LODGE   N/A     55  42  61 N5        30.12F
NEWTON         CLOUDY    51  45  79 NW6       30.12S
PARSONS        CLOUDY    54  49  83 NE10G20   30.06S
WICHITA INTL   CLOUDY    54  46  74 NW7       30.10F
WICHITA JABRA  CLOUDY    53  46  77 N5        30.10F
WICHITA MCCONL CLOUDY    54  45  70 N8        30.10S
WINFIELD       CLOUDY    51  51 100 N6        30.10F
$$

KSZ007>012-019>026-033>040-048>060-102>105-230600-
NORTHEAST KANSAS

CITY           SKY/WX    TMP DP  RH WIND       PRES   REMARKS
CONCORDIA      MOCLDY    50  40  68 NW7       30.13F
EMPORIA        CLOUDY    55  46  71 N3        30.08F
LAWRENCE       CLOUDY    59  42  53 NE8       30.10F
MANHATTAN      CLOUDY    53  45  74 CALM      30.12R
OLATHE IND     CLOUDY    58  40  51 NE8       30.09F
OLATHE EXE     CLOUDY    57  39  51 NE12      30.08F
SALINA         CLEAR     51  42  71 N3        30.13S
TOPEKA BILLARD CLOUDY    59  46  62 N5        30.10F
TOPEKA FORBES  CLOUDY    61  43  51 NE7       30.09F
$$



USA.gov is the U.S. government's official web portal to all federal, state and local government web resources and services.